Regional Weather Roundup
Issued by NWS Columbia, SC

Home | Current Version | Previous Version | Text Only | Print | Product List | Glossary On
Versions: 1 2 3 4 5 6 7 8 9 10 11 12 13 14 15 16 17 18 19 20 21 22 23 24 25 26 27 28 29 30 31 32 33 34 35 36 37 38 39 40 41 42 43 44 45 46 47 48 49 50
000
ASUS42 KCAE 100910
RWRCAE
REGIONAL WEATHER ROUNDUP
NATIONAL WEATHER SERVICE COLUMBIA SC
400 AM EST SAT DEC 10 2016

NOTE: "FAIR" INDICATES FEW OR NO CLOUDS BELOW 12,000 FEET WITH NO
SIGNIFICANT WEATHER AND/OR OBSTRUCTIONS TO VISIBILITY.

NOT ALL STATIONS ARE QUALITY CONTROLLED BY THE NATIONAL
WEATHER SERVICE. USE DATA WITH CAUTION...ESPECIALLY
DEWPOINT OBSERVATIONS.

SCZ001>056-GAZ040-063>065-077-101000-
...UPSTATE SOUTH CAROLINA...

CITY           SKY/WX    TMP DP  RH WIND       PRES   REMARKS
ANDERSON       CLEAR     28  16  60 NE5       30.48F WCI  23
LIBERTY        SUNNY     21  18  88 N3        30.46S
SPARTANBURG    CLEAR     25  18  74 CALM      30.49S
CLEMSON        CLEAR     28  19  69 N3        30.49S
GREENVILLE     CLEAR     30  14  51 NE5       30.49R WCI  25
GREENWOOD      CLEAR     27  15  61 NE3       30.50F
GREER          CLEAR     25  15  66 N3        30.48R
ROCK HILL      CLEAR     22  15  75 CALM      30.50F
CHESTER        SUNNY     27  14  59 NE3       30.50F
LAURENS          N/A     27  19  74 CALM      30.49F


...CENTRAL SOUTH CAROLINA...

CITY           SKY/WX    TMP DP  RH WIND       PRES   REMARKS
COLUMBIA APT   CLEAR     26  22  84 CALM      30.51R
COLUMBIA OWENS CLEAR     31  19  61 E5        30.52S WCI  26
MCENTIRE ANGB  CLEAR     30  17  58 NE6       30.50S WCI  24
ORANGEBURG     CLEAR     31  20  63 NE6       30.49S WCI  25
SUMTER SHAW    CLEAR     27  19  73 NE9       30.49R WCI  17
NEWBERRY       SUNNY     27  19  74 NE3       30.52F
AIKEN          FAIR      27  21  80 NE6       30.51F WCI  20
MANNING        FAIR      30  23  74 CALM      30.51R
LANCASTER      SUNNY     23  18  80 CALM      30.51F
WINNSBORO      SUNNY     30  19  64 NE6       30.49S WCI  24


...EASTERN AND COASTAL SOUTH CAROLINA...

CITY           SKY/WX    TMP DP  RH WIND       PRES   REMARKS
MYRTLE BEACH   CLEAR     30  19  64 N8        30.52S WCI  23
N MYRTLE BCH   CLEAR     30  22  72 N8        30.50R WCI  22
CONWAY         FAIR      28  23  80 N3        30.51S
MARION         FAIR      28  19  69 N6        30.53S WCI  22
HARTSVILLE     FAIR      28  18  64 NE6       30.51S WCI  22
FLORENCE       CLEAR     28  21  75 N8        30.52S WCI  20
DARLINGTON     CLEAR     24  19  81 N6        30.53S WCI  17
CHARLESTON APT CLEAR     33  22  63 CALM      30.49R
WALTERBORO     SUNNY     30  30 100 CALM      30.51R
BEAUFORT       CLEAR     35  24  64 NE6       30.49R WCI  30
HILTON HEAD    CLEAR     39  27  60 N7        30.49R WCI  34


...EASTERN GEORGIA...

CITY           SKY/WX    TMP DP  RH WIND       PRES   REMARKS
AUGUSTA BUSH F CLEAR     28  23  81 N5        30.49S WCI  23
AUGUSTA DANIEL CLEAR     31  22  69 N3        30.49R
THOMSON        CLEAR     26  26 100 CALM      30.53S
WASHINGTON     FAIR      30  28  93 E3        30.47F
CLAXTON        FAIR      30  30 100 CALM      30.50R
SYLVANIA       SUNNY    N/A N/A N/A CALM      30.49R
STATESBORO     CLEAR     29  28  99 CALM      30.49R
SAVANNAH       CLEAR     32  28  85 N3        30.49R


...SOUTHERN NORTH CAROLINA...

CITY           SKY/WX    TMP DP  RH WIND       PRES   REMARKS
CHARLOTTE      CLEAR     26  13  57 CALM      30.50F
MONROE         CLEAR     25  14  63 NE3       30.49S
WADESBORO      SUNNY     19  16  89 CALM      30.53S
ROCKINGHAM     SUNNY     26  17  68 NE3       30.51S
RUTHERFORDTON  CLEAR     21  17  84 NW5       30.49S WCI  14
ASHEVILLE      CLEAR     19  13  77 N3        30.44R

$$



USA.gov is the U.S. government's official web portal to all federal, state and local government web resources and services.